Вернуться в каталог

SL-8 DEB *

АктивенLEO
NORAD 13499·DEBRIS·🇷🇺 Russia

Запущен Jul 15, 1976 с Plesetsk Cosmodrome

Loading…

Ближайшие Пролёты (ближайшие 24 часа)

TLE

СвежийSource: Space-Track

Эпоха: Sep 14, 2026, 12:40 UTC

1 13499U 76069D   26257.52824331  .00001247  00000-0  24601-3 0  9994
2 13499  74.0526 155.8201 0012277   0.0282  58.3032 14.63530326408977

Отслеживайте SL-8 DEB * в реальном времени с AllMySat

Download on the App Store